Location: Gosfield
(51.9333°N, 0.5833°E)
Time: 20:36:37
(UTC+00:00)

SL-4 R/B - Pass Details

Date: 06 September 2025
Orbit: 386 x 525 km, 51.6° (Epoch: 15 December)

Event Time Altitude Azimuth Distance (km) Brightness Sun altitude
Rises 19:28:05 0° 283° (WNW) 2,389 7.4 -9.0°
Reaches altitude 10° 19:30:25 10° 270° (W) 1,495 5.5 -9.3°
Maximum altitude 19:33:17 26° 212° (SSW) 832 3.0 -9.7°
Drops below altitude 10° 19:36:02 10° 152° (SSE) 1,439 3.7 -10.1°
Enters shadow 19:36:03 10° 152° (SSE) 1,447 3.7 -10.1°
